Location: Disonche
(45.9620°N, 6.2160°E)
Time: 06:22:02
(UTC+00:00)

Daily predictions for brighter satellites

Satellite Brightness Start Highest point End
(mag) Time Altitude Azimuth Time Altitude Azimuth Time Altitude Azimuth
Cosmos 841 Rocket 4.1 17:39:21 10° N 17:44:09 36° ENE 17:48:52 10° SE
Cosmos 1707 3.0 17:40:44 10° NNW 17:44:31 73° W 17:48:18 10° S
Cosmos 1975 2.9 17:41:50 10° S 17:45:53 90° E 17:49:57 10° N
Cosmos 1626 2.0 17:42:24 10° N 17:46:03 74° E 17:49:39 10° SSE
ISS -2.9 17:43:10 10° NW 17:46:23 39° NNE 17:49:34 10° E
Cosmos 2297 Rocket 3.4 17:42:21 10° NW 17:47:46 48° WSW 17:53:10 10° S
Cosmos 1980 Rocket 2.6 17:43:18 10° S 17:48:32 41° ESE 17:53:46 10° NE
Okean 2 3.5 17:45:10 10° N 17:49:18 58° ENE 17:53:23 10° SSE
PAYLOAD B 4.2 17:44:19 10° SSE 17:49:48 72° ENE 17:55:18 10° N
COSMO-SKYMED 1 2.6 17:46:02 10° NNE 17:50:25 84° ESE 17:54:46 10° SSW
Cosmos 1954 Rocket 4.2 17:46:24 10° SSW 17:51:34 81° WNW 17:56:47 10° NNE
HJ-1C 4.1 17:49:06 10° SE 17:51:50 28° ENE 17:54:33 10° N
CZ-4 R/B 2.4 17:48:27 10° SE 17:52:04 29° ENE 17:55:42 10° N
Cosmos 1763 Rocket 3.5 17:47:09 10° NNW 17:52:14 84° WSW 17:57:20 10° SSE
Cosmos 2369 3.9 17:50:49 10° S 17:56:19 51° ESE 18:01:51 10° NE
NOSS 3-1 (A) 4.4 17:49:32 10° NW 17:57:04 79° SW 18:05:56 10° SSE
Cosmos 2278 4.4 17:58:59 10° SSE 18:03:52 30° ESE 18:08:46 10° NE
Meteor 2-10 4.4 17:59:58 10° SSE 18:05:23 48° E 18:10:41 10° NNE
SL-16 R/B 3.6 18:04:23 10° SE 18:07:34 15° E 18:10:45 10° ENE
USA 186 3.6 18:06:54 13° E 18:08:02 15° ENE 18:10:05 10° NNE
USA 215 3.9 18:02:41 10° NE 18:09:00 53° NNW 18:15:18 10° W
Cosmos 1437 Rocket 4.2 18:10:45 10° SE 18:13:08 16° E 18:15:32 10° NE
Cosmos 1741 Rocket 4.1 18:09:07 10° S 18:14:15 55° ESE 18:19:24 10° NNE
SL-4 R/B 2.9 18:10:10 10° WNW 18:14:27 45° NNE 18:18:03 15° E
Cosmos 1844 Rocket 4.4 18:11:22 10° N 18:14:49 16° NE 18:17:37 12° ENE
ARGOS Delta rocket 4.0 18:10:46 10° NNE 18:16:08 75° E 18:21:12 10° S
Timation 2 Rocket 4.1 18:12:22 10° NNW 18:18:49 60° ENE 18:24:56 10° SE
BREEZE-M DEB (TANK) 4.1 18:16:42 10° SW 18:21:08 73° SE 18:39:28 10° ENE
Okean O Rocket 1.5 18:16:57 10° SSE 18:21:15 69° ENE 18:25:37 10° N
Cosmos 1908 Rocket 4.3 18:18:13 10° SSE 18:22:00 30° E 18:25:47 10° NNE
Nadezhda 4 Rocket 4.2 18:18:08 10° SSE 18:24:10 49° E 18:30:14 10° NNE
Cosmos 2219 4.4 18:20:07 10° NW 18:25:34 45° WSW 18:31:01 10° S
IRIDIUM 103 4.4 18:21:29 10° SSE 18:26:33 55° E 18:31:39 10° NNE
Cosmos 1814 Rocket 4.4 18:21:37 10° N 18:26:38 42° ENE 18:30:29 16° SE
Meteor 2-21 4.4 18:20:59 10° S 18:26:54 60° E 18:32:51 10° NNE
Landsat 5 4.4 18:23:01 10° NE 18:26:58 29° E 18:30:52 10° SSE
Cosmos 1242 Rocket 2.9 18:23:39 10° SSW 18:27:12 66° WNW 18:30:45 10° N
Cosmos 1809 Rocket 4.4 18:23:10 10° S 18:29:13 77° E 18:35:19 10° NNE
BREEZE M DEB (TANK) 3.7 18:23:41 10° SSW 18:29:55 27° SSE 18:31:25 21° ESE
SL-14 R/B 3.2 18:27:33 10° N 18:31:32 87° E 18:35:31 10° S
Cosmos 2263 Rocket 2.2 18:27:28 10° NNW 18:33:10 70° ENE 18:38:39 11° SE
Cosmos 1805 3.5 18:30:06 10° SSW 18:33:58 71° W 18:37:52 10° N
YAOGAN 1 2.8 18:30:49 10° S 18:35:07 72° WSW 18:39:27 10° NNW
Cosmos 1674 Rocket 3.5 18:31:37 10° N 18:36:02 80° E 18:40:27 10° SSE
COBE Rocket 4.3 18:32:33 10° S 18:37:26 65° W 18:42:12 10° NNW
Meteor 1-15 Rocket 4.5 18:32:15 10° SSE 18:37:29 44° E 18:42:44 10° NNE
Cosmos 1726 1.9 18:33:59 10° S 18:37:37 77° E 18:41:17 10° NNE
Meteor 2-5 Rocket 4.2 18:32:54 10° N 18:38:04 37° ENE 18:41:16 20° SE
OBJECT-B 1.1 18:38:57 32° NE 18:38:57 32° NE 18:40:56 10° N
H-2A R/B 4.1 18:39:28 16° NE 18:39:28 16° NE 18:41:25 10° NNE
Cosmos 2082 4.3 18:38:55 10° NNW 18:44:33 59° WSW 18:50:09 10° S
IRIDIUM 106 4.2 18:39:37 10° S 18:44:49 79° E 18:50:03 10° N
USA 267 4.4 18:38:54 10° SSE 18:44:57 39° SW 18:51:03 10° WNW
Cosmos 1766 3.1 18:43:59 10° S 18:47:53 78° E 18:51:50 10° NNE
IRS-1C Rocket 4.4 18:46:16 23° SE 18:49:10 45° ENE 18:54:09 10° N
Cosmos 1025 Rocket 4.1 18:47:56 10° NNE 18:51:18 26° ENE 18:51:18 26° ENE
Cosmos 1697 Rocket 4.2 18:47:10 10° WSW 18:52:19 37° NW 18:57:32 10° NNE
CSL-04 Debris 4.1 18:50:17 15° SSE 18:54:45 64° ENE 19:00:06 10° N
Cosmos 1975 Rocket 3.7 18:56:54 10° N 19:00:50 35° ENE 19:00:50 35° ENE
Landsat 7 4.2 19:00:02 37° ESE 19:01:05 43° ENE 19:05:33 10° N
IGS 5A 3.4 18:59:48 38° SE 19:01:09 60° ENE 19:05:14 10° N
Cosmos 1092 Rocket 4.1 18:55:05 10° SSE 19:01:11 54° E 19:07:16 10° NNE
Resurs 01 Rocket 3.0 19:05:26 24° NE 19:05:26 24° NE 19:08:16 10° N
Cosmos 1378 Rocket 4.4 19:00:55 10° NNW 19:05:11 50° W 19:09:22 10° S
Cosmos 968 Rocket 3.5 19:03:59 10° S 19:09:08 59° ESE 19:14:18 10° NNE
Cosmos 1470 3.4 19:15:57 40° NNE 19:15:57 40° NNE 19:18:33 10° NNE
ISS -3.0 19:19:55 10° WNW 19:22:45 48° WSW 19:22:45 48° WSW
Cosmos 2322 Rocket 3.8 19:18:11 10° S 19:27:51 16° NE 19:28:57 10° NE
Ariane Rocket 4.3 19:25:15 25° NE 19:25:15 25° NE 19:28:28 10° N
CSL-04 Rocket 3.6 19:21:40 25° S 19:24:50 82° WSW 19:30:16 10° NNW
Okean-O 2.6 19:24:10 47° S 19:25:26 82° WSW 19:29:54 10° NNW
Resurs 1-3 3.4 19:26:17 72° SE 19:26:42 82° ENE 19:31:06 10° NNW
CZ-4 R/B 3.5 19:23:22 10° SSW 19:26:57 27° W 19:30:34 10° NW
STPSAT 2 (USA 217) 4.4 19:22:35 10° SSW 19:27:08 78° ESE 19:31:42 10° NNE
Gbstr 26 Del rocket 4.5 19:21:48 10° WSW 19:29:33 85° NNW 19:34:41 26° ENE
SJ-6B 3.2 19:30:23 49° SW 19:30:55 55° W 19:34:38 10° NNW
Cosmos 1980 Rocket 3.7 19:27:28 10° WSW 19:32:35 35° NW 19:37:44 10° NNE
Cosmos 1570 Rocket 4.0 19:28:07 10° NNW 19:33:24 80° WSW 19:34:49 50° S
Cosmos 1627 Rocket 4.3 19:31:09 10° S 19:37:17 88° E 19:43:27 10° N
USA 186 3.5 19:40:04 33° W 19:40:04 33° W 19:43:07 10° NNW
deb Chang Zheng 4 4.0 19:41:18 50° N 19:41:18 50° N 19:44:25 10° NNW
Cosmos 1437 Rocket 4.2 19:45:30 10° SW 19:48:59 36° WNW 19:52:29 10° N
Meteor 1-24 Rocket 3.8 19:44:38 10° NNW 19:49:54 65° W 19:51:25 45° SSW
SL-16 R/B 2.1 19:45:12 10° SSW 19:50:53 84° WNW 19:56:36 10° NNE
USA 215 4.5 19:47:18 18° NE 19:51:14 34° N 19:56:59 10° WNW
SL-4 R/B 2.7 19:49:39 10° WNW 19:53:27 60° W 19:53:27 60° W
Cosmos 2208 Rocket 4.3 19:51:26 10° NNW 19:56:46 65° WSW 19:57:22 60° SW
Cosmos 1844 Rocket 2.7 19:54:04 10° NNW 19:59:17 68° NNE 19:59:17 68° NNE
Cosmos 2026 Rocket 4.3 19:56:25 10° SSW 20:02:24 62° WNW 20:08:26 10° N
Cosmos 2278 Rocket 4.2 20:00:30 10° N 20:03:03 15° NNE 20:03:03 15° NNE
MOS 1 4.2 20:08:42 80° NW 20:08:42 80° NW 20:14:05 10° NNW
Cosmos 1553 Rocket 3.9 20:03:06 10° N 20:09:28 89° W 20:09:43 84° S
H-2A R/B 4.4 20:15:55 26° NW 20:15:55 26° NW 20:17:50 10° NNW
USA 281 3.9 20:16:22 39° NE 20:16:22 39° NE 20:21:39 10° NNW
Cosmos 2263 Rocket 4.5 20:12:33 10° NW 20:16:29 19° W 20:20:24 10° SW
Cosmos 1844 4.1 20:15:46 10° NNW 20:20:06 56° NNW 20:20:06 56° NNW
Resurs 01 Rocket 3.8 20:42:59 24° NW 20:42:59 24° NW 20:45:04 10° NNW
Terra 4.4 21:07:10 15° N 21:07:10 15° N 21:07:56 10° N
Cosmos 2322 Rocket 3.9 21:09:30 28° NNW 21:09:30 28° NNW 21:12:54 10° NNE
ATLAS 2AS CENTAUR R/B 4.2 21:03:13 10° NNW 21:09:00 26° NNE 21:09:00 26° NNE
USA 215 4.4 21:34:39 36° NNW 21:34:39 36° NNW 21:39:18 10° NW
